Location: Bidwell Hollow
(37.7387°N, 90.1707°W)
Time: 02:15:54
(UTC+00:00)

Vanguard 3 - Pass Details

Date: 11 May 2026
Orbit: 507 x 3204 km, 33.3° (Epoch: 6 June)

Event Time Altitude Azimuth Distance (km) Brightness Sun altitude
Rises 21:50:46 0° 254° (WSW) 7,087 12.9 35.7°
Reaches altitude 10° 21:55:29 10° 253° (WSW) 6,120 12.9 34.8°
Maximum altitude 22:14:58 74° 173° (S) 2,873 10.4 30.9°
Drops below altitude 10° 22:28:32 10° 92° (E) 4,471 10.5 28.2°
Sets 22:31:24 0° 90° (E) 5,169 10.7 27.7°
